Terminal Aerodrome Forecast
Issued by NWS Green Bay, WI

Home | Current Version | Previous Version | Graphics & Text | Print | Product List | Glossary On
Versions: 1 2 3 4 5 6 7 8 9 10 11 12 13 14 15 16 17 18 19 20 21 22 23 24 25 26 27 28 29 30 31 32
000
FTUS43 KGRB 282300
TAFGRB
TAF
KGRB 282336Z 2900/2924 33006KT P6SM SCT060 BKN080
     FM290900 32005KT P6SM SCT080
     FM291800 32008KT P6SM VCSH SCT050 BKN090=

USA.gov is the U.S. government's official web portal to all federal, state and local government web resources and services.